Year,Month,Day,Hour,Minute,Value (Times are PST for temperature in C)
2013,04,22,00,00,3.40
2013,04,22,00,01,3.40
2013,04,22,00,02,3.40
2013,04,22,00,03,3.40
2013,04,22,00,04,3.40
2013,04,22,00,05,3.40
2013,04,22,00,06,3.40
2013,04,22,00,07,3.40
2013,04,22,00,08,3.40
2013,04,22,00,09,3.40
2013,04,22,00,10,3.40
2013,04,22,00,11,3.40
2013,04,22,00,12,3.40
2013,04,22,00,13,3.40
2013,04,22,00,14,3.40
2013,04,22,00,15,3.40
2013,04,22,00,16,3.40
2013,04,22,00,17,3.40
2013,04,22,00,18,3.40
2013,04,22,00,19,3.40
2013,04,22,00,20,3.40
2013,04,22,00,21,3.30
2013,04,22,00,22,3.30
2013,04,22,00,23,3.30
2013,04,22,00,24,3.30
2013,04,22,00,25,3.30
2013,04,22,00,26,3.30
2013,04,22,00,27,3.30
2013,04,22,00,28,3.40
2013,04,22,00,29,3.40
2013,04,22,00,30,3.50
2013,04,22,00,31,3.50
2013,04,22,00,32,3.50
2013,04,22,00,33,3.50
2013,04,22,00,34,3.50
2013,04,22,00,35,3.40
2013,04,22,00,36,3.40
2013,04,22,00,37,3.30
2013,04,22,00,38,3.30
2013,04,22,00,39,3.30
2013,04,22,00,40,3.20
2013,04,22,00,41,3.20
2013,04,22,00,42,3.20
2013,04,22,00,43,3.10
2013,04,22,00,44,3.10
2013,04,22,00,45,3.10
2013,04,22,00,46,3.10
2013,04,22,00,47,3.00
2013,04,22,00,48,3.00
2013,04,22,00,49,2.90
2013,04,22,00,50,2.90
2013,04,22,00,51,2.80
2013,04,22,00,52,2.80
2013,04,22,00,53,2.80
2013,04,22,00,54,2.80
2013,04,22,00,55,2.80
2013,04,22,00,56,2.70
2013,04,22,00,57,2.70
2013,04,22,00,58,2.70
2013,04,22,00,59,2.80
2013,04,22,01,00,2.80
2013,04,22,01,01,2.80
2013,04,22,01,02,2.80
2013,04,22,01,03,2.80
2013,04,22,01,04,2.80
2013,04,22,01,05,2.80
2013,04,22,01,06,2.80
2013,04,22,01,07,2.80
2013,04,22,01,08,2.80
2013,04,22,01,09,2.70
2013,04,22,01,10,2.70
2013,04,22,01,11,2.60
2013,04,22,01,12,2.60
2013,04,22,01,13,2.60
2013,04,22,01,14,2.50
2013,04,22,01,15,2.50
2013,04,22,01,16,2.50
2013,04,22,01,17,2.50
2013,04,22,01,18,2.50
2013,04,22,01,19,2.50
2013,04,22,01,20,2.60
2013,04,22,01,21,2.60
2013,04,22,01,22,2.60
2013,04,22,01,23,2.50
2013,04,22,01,24,2.50
2013,04,22,01,25,2.40
2013,04,22,01,26,2.40
2013,04,22,01,27,2.40
2013,04,22,01,28,2.30
2013,04,22,01,29,2.30
2013,04,22,01,30,2.30
2013,04,22,01,31,2.30
2013,04,22,01,32,2.30
2013,04,22,01,33,2.30
2013,04,22,01,34,2.30
2013,04,22,01,35,2.30
2013,04,22,01,36,2.30
2013,04,22,01,37,2.30
2013,04,22,01,38,2.30
2013,04,22,01,39,2.30
2013,04,22,01,40,2.40
2013,04,22,01,41,2.40
2013,04,22,01,42,2.30
2013,04,22,01,43,2.30
2013,04,22,01,44,2.30
2013,04,22,01,45,2.30
2013,04,22,01,46,2.30
2013,04,22,01,47,2.30
2013,04,22,01,48,2.30
2013,04,22,01,49,2.20
2013,04,22,01,50,2.20
2013,04,22,01,51,2.20
2013,04,22,01,52,2.20
2013,04,22,01,53,2.20
2013,04,22,01,54,2.20
2013,04,22,01,55,2.20
2013,04,22,01,56,2.20
2013,04,22,01,57,2.20
2013,04,22,01,58,2.20
2013,04,22,01,59,2.10
2013,04,22,02,00,2.10
2013,04,22,02,01,2.10
2013,04,22,02,02,2.10
2013,04,22,02,03,2.10
2013,04,22,02,04,2.00
2013,04,22,02,05,2.00
2013,04,22,02,06,2.00
2013,04,22,02,07,1.90
2013,04,22,02,08,1.90
2013,04,22,02,09,1.90
2013,04,22,02,10,1.90
2013,04,22,02,11,1.80
2013,04,22,02,12,1.80
2013,04,22,02,13,1.80
2013,04,22,02,14,1.80
2013,04,22,02,15,1.80
2013,04,22,02,16,1.70
2013,04,22,02,17,1.70
2013,04,22,02,18,1.70
2013,04,22,02,19,1.70
2013,04,22,02,20,1.70
2013,04,22,02,21,1.70
2013,04,22,02,22,1.70
2013,04,22,02,23,1.70
2013,04,22,02,24,1.70
2013,04,22,02,25,1.70
2013,04,22,02,26,1.70
2013,04,22,02,27,1.70
2013,04,22,02,28,1.70
2013,04,22,02,29,1.70
2013,04,22,02,30,1.70
2013,04,22,02,31,1.70
2013,04,22,02,32,1.70
2013,04,22,02,33,1.70
2013,04,22,02,34,1.60
2013,04,22,02,35,1.60
2013,04,22,02,36,1.60
2013,04,22,02,37,1.60
2013,04,22,02,38,1.60
2013,04,22,02,39,1.70
2013,04,22,02,40,1.70
2013,04,22,02,41,1.70
2013,04,22,02,42,1.70
2013,04,22,02,43,1.70
2013,04,22,02,44,1.70
2013,04,22,02,45,1.70
2013,04,22,02,46,1.70
2013,04,22,02,47,1.80
2013,04,22,02,48,1.80
2013,04,22,02,49,1.80
2013,04,22,02,50,1.80
2013,04,22,02,51,1.70
2013,04,22,02,52,1.70
2013,04,22,02,53,1.70
2013,04,22,02,54,1.70
2013,04,22,02,55,1.70
2013,04,22,02,56,1.70
2013,04,22,02,57,1.70
2013,04,22,02,58,1.70
2013,04,22,02,59,1.70
2013,04,22,03,00,1.60
2013,04,22,03,01,1.60
2013,04,22,03,02,1.60
2013,04,22,03,03,1.60
2013,04,22,03,04,1.60
2013,04,22,03,05,1.60
2013,04,22,03,06,1.60
2013,04,22,03,07,1.60
2013,04,22,03,08,1.60
2013,04,22,03,09,1.60
2013,04,22,03,10,1.60
2013,04,22,03,11,1.60
2013,04,22,03,12,1.60
2013,04,22,03,13,1.60
2013,04,22,03,14,1.60
2013,04,22,03,15,1.60
2013,04,22,03,16,1.60
2013,04,22,03,17,1.60
2013,04,22,03,18,1.60
2013,04,22,03,19,1.60
2013,04,22,03,20,1.60
2013,04,22,03,21,1.60
2013,04,22,03,22,1.60
2013,04,22,03,23,1.50
2013,04,22,03,24,1.50
2013,04,22,03,25,1.50
2013,04,22,03,26,1.50
2013,04,22,03,27,1.50
2013,04,22,03,28,1.60
2013,04,22,03,29,1.60
2013,04,22,03,30,1.60
2013,04,22,03,31,1.70
2013,04,22,03,32,1.70
2013,04,22,03,33,1.80
2013,04,22,03,34,1.80
2013,04,22,03,35,1.80
2013,04,22,03,36,1.80
2013,04,22,03,37,1.90
2013,04,22,03,38,2.00
2013,04,22,03,39,2.00
2013,04,22,03,40,2.10
2013,04,22,03,41,2.20
2013,04,22,03,42,2.30
2013,04,22,03,43,2.30
2013,04,22,03,44,2.40
2013,04,22,03,45,2.50
2013,04,22,03,46,2.50
2013,04,22,03,47,2.60
2013,04,22,03,48,2.60
2013,04,22,03,49,2.70
2013,04,22,03,50,2.70
2013,04,22,03,51,2.70
2013,04,22,03,52,2.80
2013,04,22,03,53,2.80
2013,04,22,03,54,2.80
2013,04,22,03,55,2.90
2013,04,22,03,56,2.90
2013,04,22,03,57,2.90
2013,04,22,03,58,3.00
2013,04,22,03,59,3.00
2013,04,22,04,00,3.10
2013,04,22,04,01,3.20
2013,04,22,04,02,3.20
2013,04,22,04,03,3.20
2013,04,22,04,04,3.20
2013,04,22,04,05,3.20
2013,04,22,04,06,3.20
2013,04,22,04,07,3.20
2013,04,22,04,08,3.20
2013,04,22,04,09,3.10
2013,04,22,04,10,3.00
2013,04,22,04,11,3.00
2013,04,22,04,12,2.90
2013,04,22,04,13,2.80
2013,04,22,04,14,2.80
2013,04,22,04,15,2.70
2013,04,22,04,16,2.60
2013,04,22,04,17,2.60
2013,04,22,04,18,2.50
2013,04,22,04,19,2.50
2013,04,22,04,20,2.40
2013,04,22,04,21,2.40
2013,04,22,04,22,2.30
2013,04,22,04,23,2.30
2013,04,22,04,24,2.30
2013,04,22,04,25,2.30
2013,04,22,04,26,2.30
2013,04,22,04,27,2.30
2013,04,22,04,28,2.30
2013,04,22,04,29,2.30
2013,04,22,04,30,2.30
2013,04,22,04,31,2.30
2013,04,22,04,32,2.40
2013,04,22,04,33,2.50
2013,04,22,04,34,2.60
2013,04,22,04,35,2.60
2013,04,22,04,36,2.70
2013,04,22,04,37,2.70
2013,04,22,04,38,2.80
2013,04,22,04,39,2.80
2013,04,22,04,40,2.80
2013,04,22,04,41,2.80
2013,04,22,04,42,2.80
2013,04,22,04,43,2.70
2013,04,22,04,44,2.70
2013,04,22,04,45,2.70
2013,04,22,04,46,2.60
2013,04,22,04,47,2.60
2013,04,22,04,48,2.60
2013,04,22,04,49,2.60
2013,04,22,04,50,2.70
2013,04,22,04,51,2.70
2013,04,22,04,52,2.80
2013,04,22,04,53,2.80
2013,04,22,04,54,2.80
2013,04,22,04,55,2.80
2013,04,22,04,56,2.80
2013,04,22,04,57,2.90
2013,04,22,04,58,2.90
2013,04,22,04,59,3.00
2013,04,22,05,00,3.10
2013,04,22,05,01,3.10
2013,04,22,05,02,3.10
2013,04,22,05,03,3.10
2013,04,22,05,04,3.20
2013,04,22,05,05,3.20
2013,04,22,05,06,3.20
2013,04,22,05,07,3.20
2013,04,22,05,08,3.30
2013,04,22,05,09,3.20
2013,04,22,05,10,3.20
2013,04,22,05,11,3.10
2013,04,22,05,12,3.00
2013,04,22,05,13,2.90
2013,04,22,05,14,2.80
2013,04,22,05,15,2.70
2013,04,22,05,16,2.60
2013,04,22,05,17,2.50
2013,04,22,05,18,2.50
2013,04,22,05,19,2.40
2013,04,22,05,20,2.40
2013,04,22,05,21,2.50
2013,04,22,05,22,2.50
2013,04,22,05,23,2.60
2013,04,22,05,24,2.60
2013,04,22,05,25,2.70
2013,04,22,05,26,2.80
2013,04,22,05,27,2.80
2013,04,22,05,28,2.90
2013,04,22,05,29,3.00
2013,04,22,05,30,3.00
2013,04,22,05,31,3.00
2013,04,22,05,32,3.00
2013,04,22,05,33,3.00
2013,04,22,05,34,3.00
2013,04,22,05,35,2.90
2013,04,22,05,36,2.90
2013,04,22,05,37,2.90
2013,04,22,05,38,2.90
2013,04,22,05,39,2.90
2013,04,22,05,40,2.90
2013,04,22,05,41,2.80
2013,04,22,05,42,2.80
2013,04,22,05,43,2.80
2013,04,22,05,44,2.80
2013,04,22,05,45,2.80
2013,04,22,05,46,2.80
2013,04,22,05,47,2.80
2013,04,22,05,48,2.80
2013,04,22,05,49,2.80
2013,04,22,05,50,2.80
2013,04,22,05,51,2.80
2013,04,22,05,52,2.80
2013,04,22,05,53,2.70
2013,04,22,05,54,2.70
2013,04,22,05,55,2.60
2013,04,22,05,56,2.60
2013,04,22,05,57,2.50
2013,04,22,05,58,2.50
2013,04,22,05,59,2.50
2013,04,22,06,00,2.50
2013,04,22,06,01,2.50
2013,04,22,06,02,2.60
2013,04,22,06,03,2.70
2013,04,22,06,04,2.80
2013,04,22,06,05,2.90
2013,04,22,06,06,2.90
2013,04,22,06,07,2.90
2013,04,22,06,08,2.90
2013,04,22,06,09,2.90
2013,04,22,06,10,2.90
2013,04,22,06,11,2.90
2013,04,22,06,12,2.90
2013,04,22,06,13,2.80
2013,04,22,06,14,2.80
2013,04,22,06,15,2.70
2013,04,22,06,16,2.70
2013,04,22,06,17,2.60
2013,04,22,06,18,2.60
2013,04,22,06,19,2.50
2013,04,22,06,20,2.40
2013,04,22,06,21,2.40
2013,04,22,06,22,2.30
2013,04,22,06,23,2.30
2013,04,22,06,24,2.30
2013,04,22,06,25,2.30
2013,04,22,06,26,2.30
2013,04,22,06,27,2.40
2013,04,22,06,28,2.40
2013,04,22,06,29,2.40
2013,04,22,06,30,2.40
2013,04,22,06,31,2.40
2013,04,22,06,32,2.40
2013,04,22,06,33,2.50
2013,04,22,06,34,2.50
2013,04,22,06,35,2.60
2013,04,22,06,36,2.70
2013,04,22,06,37,2.70
2013,04,22,06,38,2.80
2013,04,22,06,39,2.80
2013,04,22,06,40,2.80
2013,04,22,06,41,2.80
2013,04,22,06,42,2.80
2013,04,22,06,43,2.80
2013,04,22,06,44,3.00
2013,04,22,06,45,3.10
2013,04,22,06,46,3.10
2013,04,22,06,47,3.20
2013,04,22,06,48,3.20
2013,04,22,06,49,3.20
2013,04,22,06,50,3.30
2013,04,22,06,51,3.30
2013,04,22,06,52,3.40
2013,04,22,06,53,3.40
2013,04,22,06,54,3.40
2013,04,22,06,55,3.40
2013,04,22,06,56,3.50
2013,04,22,06,57,3.50
2013,04,22,06,58,3.50
2013,04,22,06,59,3.60
2013,04,22,07,00,3.60
2013,04,22,07,01,3.60
2013,04,22,07,02,3.70
2013,04,22,07,03,3.70
2013,04,22,07,04,3.70
2013,04,22,07,05,3.80
2013,04,22,07,06,3.80
2013,04,22,07,07,3.80
2013,04,22,07,08,3.80
2013,04,22,07,09,3.80
2013,04,22,07,10,3.80
2013,04,22,07,11,3.80
2013,04,22,07,12,3.90
2013,04,22,07,13,3.90
2013,04,22,07,14,3.90
2013,04,22,07,15,3.90
2013,04,22,07,16,3.90
2013,04,22,07,17,3.90
2013,04,22,07,18,3.90
2013,04,22,07,19,3.90
2013,04,22,07,20,4.00
2013,04,22,07,21,4.00
2013,04,22,07,22,4.00
2013,04,22,07,23,4.10
2013,04,22,07,24,4.10
2013,04,22,07,25,4.10
2013,04,22,07,26,4.20
2013,04,22,07,27,4.20
2013,04,22,07,28,4.20
2013,04,22,07,29,4.20
2013,04,22,07,30,4.30
2013,04,22,07,31,4.30
2013,04,22,07,32,4.40
2013,04,22,07,33,4.40
2013,04,22,07,34,4.50
2013,04,22,07,35,4.60
2013,04,22,07,36,4.70
2013,04,22,07,37,4.80
2013,04,22,07,38,4.90
2013,04,22,07,39,5.10
2013,04,22,07,40,5.20
2013,04,22,07,41,5.20
2013,04,22,07,42,5.30
2013,04,22,07,43,5.40
2013,04,22,07,44,5.50
2013,04,22,07,45,5.60
2013,04,22,07,46,5.70
2013,04,22,07,47,5.70
2013,04,22,07,48,5.80
2013,04,22,07,49,5.90
2013,04,22,07,50,6.00
2013,04,22,07,51,6.10
2013,04,22,07,52,6.20
2013,04,22,07,53,6.30
2013,04,22,07,54,6.40
2013,04,22,07,55,6.60
2013,04,22,07,56,6.70
2013,04,22,07,57,6.80
2013,04,22,07,58,6.80
2013,04,22,07,59,7.00
2013,04,22,08,00,7.00
2013,04,22,08,01,7.20
2013,04,22,08,02,7.30
2013,04,22,08,03,7.40
2013,04,22,08,04,7.50
2013,04,22,08,05,7.60
2013,04,22,08,06,7.70
2013,04,22,08,07,7.80
2013,04,22,08,08,7.90
2013,04,22,08,09,8.00
2013,04,22,08,10,8.10
2013,04,22,08,11,8.20
2013,04,22,08,12,8.20
2013,04,22,08,13,8.30
2013,04,22,08,14,8.40
2013,04,22,08,15,8.50
2013,04,22,08,16,8.60
2013,04,22,08,17,8.60
2013,04,22,08,18,8.70
2013,04,22,08,19,8.70
2013,04,22,08,20,8.70
2013,04,22,08,21,8.80
2013,04,22,08,22,8.80
2013,04,22,08,23,8.80
2013,04,22,08,24,8.80
2013,04,22,08,25,8.80
2013,04,22,08,26,8.80
2013,04,22,08,27,8.80
2013,04,22,08,28,8.90
2013,04,22,08,29,8.90
2013,04,22,08,30,9.00
2013,04,22,08,31,9.10
2013,04,22,08,32,9.10
2013,04,22,08,33,9.10
2013,04,22,08,34,9.20
2013,04,22,08,35,9.20
2013,04,22,08,36,9.20
2013,04,22,08,37,9.20
2013,04,22,08,38,9.20
2013,04,22,08,39,9.20
2013,04,22,08,40,9.20
2013,04,22,08,41,9.10
2013,04,22,08,42,9.10
2013,04,22,08,43,9.10
2013,04,22,08,44,9.10
2013,04,22,08,45,9.10
2013,04,22,08,46,9.10
2013,04,22,08,47,9.10
2013,04,22,08,48,9.10
2013,04,22,08,49,9.10
2013,04,22,08,50,9.10
2013,04,22,08,51,9.10
2013,04,22,08,52,9.10
2013,04,22,08,53,9.10
2013,04,22,08,54,9.10
2013,04,22,08,55,9.10
2013,04,22,08,56,9.10
2013,04,22,08,57,9.10
2013,04,22,08,58,9.10
2013,04,22,08,59,9.10
2013,04,22,09,00,9.10
2013,04,22,09,01,9.10
2013,04,22,09,02,9.20
2013,04,22,09,03,9.20
2013,04,22,09,04,9.20
2013,04,22,09,05,9.20
2013,04,22,09,06,9.10
2013,04,22,09,07,9.20
2013,04,22,09,08,9.20
2013,04,22,09,09,9.20
2013,04,22,09,10,9.10
2013,04,22,09,11,9.20
2013,04,22,09,12,9.20
2013,04,22,09,13,9.30
2013,04,22,09,14,9.30
2013,04,22,09,15,9.30
2013,04,22,09,16,9.20
2013,04,22,09,17,9.20
2013,04,22,09,18,9.20
2013,04,22,09,19,9.20
2013,04,22,09,20,9.20
2013,04,22,09,21,9.30
2013,04,22,09,22,9.30
2013,04,22,09,23,9.40
2013,04,22,09,24,9.30
2013,04,22,09,25,9.30
2013,04,22,09,26,9.30
2013,04,22,09,27,9.30
2013,04,22,09,28,9.40
2013,04,22,09,29,9.40
2013,04,22,09,30,9.30
2013,04,22,09,31,9.30
2013,04,22,09,32,9.30
2013,04,22,09,33,9.20
2013,04,22,09,34,9.20
2013,04,22,09,35,9.20
2013,04,22,09,36,9.20
2013,04,22,09,37,9.20
2013,04,22,09,38,9.30
2013,04,22,09,39,9.30
2013,04,22,09,40,9.30
2013,04,22,09,41,9.40
2013,04,22,09,42,9.40
2013,04,22,09,43,9.40
2013,04,22,09,44,9.40
2013,04,22,09,45,9.40
2013,04,22,09,46,9.50
2013,04,22,09,47,9.60
2013,04,22,09,48,9.70
2013,04,22,09,49,9.70
2013,04,22,09,50,9.70
2013,04,22,09,51,9.70
2013,04,22,09,52,9.70
2013,04,22,09,53,9.70
2013,04,22,09,54,9.60
2013,04,22,09,55,9.60
2013,04,22,09,56,9.60
2013,04,22,09,57,9.50
2013,04,22,09,58,9.50
2013,04,22,09,59,9.50
2013,04,22,10,00,9.50
2013,04,22,10,01,9.40
2013,04,22,10,02,9.40
2013,04,22,10,03,9.40
2013,04,22,10,04,9.40
2013,04,22,10,05,9.50
2013,04,22,10,06,9.50
2013,04,22,10,07,9.60
2013,04,22,10,08,9.70
2013,04,22,10,09,9.80
2013,04,22,10,10,9.80
2013,04,22,10,11,9.70
2013,04,22,10,12,9.60
2013,04,22,10,13,9.60
2013,04,22,10,14,9.60
2013,04,22,10,15,9.70
2013,04,22,10,16,9.70
2013,04,22,10,17,9.70
2013,04,22,10,18,9.70
2013,04,22,10,19,9.70
2013,04,22,10,20,9.80
2013,04,22,10,21,9.80
2013,04,22,10,22,9.80
2013,04,22,10,23,9.80
2013,04,22,10,24,9.80
2013,04,22,10,25,9.70
2013,04,22,10,26,9.70
2013,04,22,10,27,9.60
2013,04,22,10,28,9.50
2013,04,22,10,29,9.40
2013,04,22,10,30,9.50
2013,04,22,10,31,9.50
2013,04,22,10,32,9.60
2013,04,22,10,33,9.70
2013,04,22,10,34,9.80
2013,04,22,10,35,9.80
2013,04,22,10,36,9.80
2013,04,22,10,37,9.80
2013,04,22,10,38,9.90
2013,04,22,10,39,9.90
2013,04,22,10,40,9.90
2013,04,22,10,41,9.90
2013,04,22,10,42,9.90
2013,04,22,10,43,9.90
2013,04,22,10,44,9.90
2013,04,22,10,45,9.90
2013,04,22,10,46,9.90
2013,04,22,10,47,9.90
2013,04,22,10,48,10.00
2013,04,22,10,49,10.10
2013,04,22,10,50,10.10
2013,04,22,10,51,10.10
2013,04,22,10,52,10.20
2013,04,22,10,53,10.30
2013,04,22,10,54,10.30
2013,04,22,10,55,10.30
2013,04,22,10,56,10.30
2013,04,22,10,57,10.40
2013,04,22,10,58,10.50
2013,04,22,10,59,10.50
2013,04,22,11,00,10.60
2013,04,22,11,01,10.60
2013,04,22,11,02,10.60
2013,04,22,11,03,10.60
2013,04,22,11,04,10.60
2013,04,22,11,05,10.60
2013,04,22,11,06,10.60
2013,04,22,11,07,10.60
2013,04,22,11,08,10.60
2013,04,22,11,09,10.70
2013,04,22,11,10,10.70
2013,04,22,11,11,10.80
2013,04,22,11,12,10.80
2013,04,22,11,13,10.80
2013,04,22,11,14,10.70
2013,04,22,11,15,10.70
2013,04,22,11,16,10.70
2013,04,22,11,17,10.80
2013,04,22,11,18,10.90
2013,04,22,11,19,11.00
2013,04,22,11,20,11.00
2013,04,22,11,21,11.10
2013,04,22,11,22,11.10
2013,04,22,11,23,11.20
2013,04,22,11,24,11.20
2013,04,22,11,25,11.30
2013,04,22,11,26,11.30
2013,04,22,11,27,11.30
2013,04,22,11,28,11.20
2013,04,22,11,29,11.20
2013,04,22,11,30,11.20
2013,04,22,11,31,11.20
2013,04,22,11,32,11.10
2013,04,22,11,33,11.10
2013,04,22,11,34,11.00
2013,04,22,11,35,10.90
2013,04,22,11,36,10.80
2013,04,22,11,37,10.80
2013,04,22,11,38,10.70
2013,04,22,11,39,10.70
2013,04,22,11,40,10.70
2013,04,22,11,41,10.80
2013,04,22,11,42,10.80
2013,04,22,11,43,10.90
2013,04,22,11,44,10.90
2013,04,22,11,45,11.00
2013,04,22,11,46,10.90
2013,04,22,11,47,10.90
2013,04,22,11,48,10.80
2013,04,22,11,49,10.70
2013,04,22,11,50,10.70
2013,04,22,11,51,10.70
2013,04,22,11,52,10.80
2013,04,22,11,53,10.90
2013,04,22,11,54,10.90
2013,04,22,11,55,10.90
2013,04,22,11,56,10.90
2013,04,22,11,57,11.00
2013,04,22,11,58,11.00
2013,04,22,11,59,11.10
2013,04,22,12,00,11.20
2013,04,22,12,01,11.20
2013,04,22,12,02,11.20
2013,04,22,12,03,11.20
2013,04,22,12,04,11.20
2013,04,22,12,05,11.20
2013,04,22,12,06,11.20
2013,04,22,12,07,11.20
2013,04,22,12,08,11.20
2013,04,22,12,09,11.20
2013,04,22,12,10,11.20
2013,04,22,12,11,11.20
2013,04,22,12,12,11.20
2013,04,22,12,13,11.10
2013,04,22,12,14,11.10
2013,04,22,12,15,11.10
2013,04,22,12,16,11.10
2013,04,22,12,17,11.10
2013,04,22,12,18,11.20
2013,04,22,12,19,11.20
2013,04,22,12,20,11.40
2013,04,22,12,21,11.50
2013,04,22,12,22,11.50
2013,04,22,12,23,11.60
2013,04,22,12,24,11.60
2013,04,22,12,25,11.60
2013,04,22,12,26,11.60
2013,04,22,12,27,11.60
2013,04,22,12,28,11.70
2013,04,22,12,29,11.80
2013,04,22,12,30,11.80
2013,04,22,12,31,11.90
2013,04,22,12,32,12.00
2013,04,22,12,33,12.00
2013,04,22,12,34,11.80
2013,04,22,12,35,11.70
2013,04,22,12,36,11.50
2013,04,22,12,37,11.50
2013,04,22,12,38,11.50
2013,04,22,12,39,11.50
2013,04,22,12,40,11.50
2013,04,22,12,41,11.40
2013,04,22,12,42,11.40
2013,04,22,12,43,11.40
2013,04,22,12,44,11.40
2013,04,22,12,45,11.40
2013,04,22,12,46,11.30
2013,04,22,12,47,11.20
2013,04,22,12,48,11.20
2013,04,22,12,49,11.30
2013,04,22,12,50,11.30
2013,04,22,12,51,11.30
2013,04,22,12,52,11.40
2013,04,22,12,53,11.40
2013,04,22,12,54,11.50
2013,04,22,12,55,11.40
2013,04,22,12,56,11.40
2013,04,22,12,57,11.40
2013,04,22,12,58,11.40
2013,04,22,12,59,11.40
2013,04,22,13,00,11.40
2013,04,22,13,01,11.30
2013,04,22,13,02,11.30
2013,04,22,13,03,11.40
2013,04,22,13,04,11.50
2013,04,22,13,05,11.60
2013,04,22,13,06,11.60
2013,04,22,13,07,11.70
2013,04,22,13,08,11.70
2013,04,22,13,09,11.60
2013,04,22,13,10,11.60
2013,04,22,13,11,11.60
2013,04,22,13,12,11.70
2013,04,22,13,13,11.70
2013,04,22,13,14,11.70
2013,04,22,13,15,11.70
2013,04,22,13,16,11.70
2013,04,22,13,17,11.60
2013,04,22,13,18,11.60
2013,04,22,13,19,11.60
2013,04,22,13,20,11.60
2013,04,22,13,21,11.60
2013,04,22,13,22,11.60
2013,04,22,13,23,11.70
2013,04,22,13,24,11.80
2013,04,22,13,25,11.80
2013,04,22,13,26,11.80
2013,04,22,13,27,11.80
2013,04,22,13,28,11.80
2013,04,22,13,29,11.80
2013,04,22,13,30,11.90
2013,04,22,13,31,11.90
2013,04,22,13,32,11.90
2013,04,22,13,33,11.90
2013,04,22,13,34,12.00
2013,04,22,13,35,11.90
2013,04,22,13,36,11.90
2013,04,22,13,37,11.90
2013,04,22,13,38,11.80
2013,04,22,13,39,11.80
2013,04,22,13,40,11.80
2013,04,22,13,41,11.80
2013,04,22,13,42,11.80
2013,04,22,13,43,11.80
2013,04,22,13,44,11.70
2013,04,22,13,45,11.80
2013,04,22,13,46,11.80
2013,04,22,13,47,11.80
2013,04,22,13,48,11.80
2013,04,22,13,49,11.80
2013,04,22,13,50,11.70
2013,04,22,13,51,11.70
2013,04,22,13,52,11.70
2013,04,22,13,53,11.70
2013,04,22,13,54,11.70
2013,04,22,13,55,11.70
2013,04,22,13,56,11.70
2013,04,22,13,57,11.70
2013,04,22,13,58,11.80
2013,04,22,13,59,11.90
2013,04,22,14,00,11.90
2013,04,22,14,01,11.90
2013,04,22,14,02,11.90
2013,04,22,14,03,11.80
2013,04,22,14,04,11.80
2013,04,22,14,05,11.80
2013,04,22,14,06,11.80
2013,04,22,14,07,11.80
2013,04,22,14,08,11.80
2013,04,22,14,09,11.80
2013,04,22,14,10,11.90
2013,04,22,14,11,11.90
2013,04,22,14,12,11.90
2013,04,22,14,13,11.80
2013,04,22,14,14,11.80
2013,04,22,14,15,11.80
2013,04,22,14,16,11.80
2013,04,22,14,17,11.80
2013,04,22,14,18,11.80
2013,04,22,14,19,11.80
2013,04,22,14,20,11.80
2013,04,22,14,21,11.80
2013,04,22,14,22,11.90
2013,04,22,14,23,11.90
2013,04,22,14,24,12.00
2013,04,22,14,25,12.00
2013,04,22,14,26,12.10
2013,04,22,14,27,12.10
2013,04,22,14,28,12.10
2013,04,22,14,29,12.20
2013,04,22,14,30,12.20
2013,04,22,14,31,12.10
2013,04,22,14,32,12.10
2013,04,22,14,33,12.10
2013,04,22,14,34,12.20
2013,04,22,14,35,12.20
2013,04,22,14,36,12.20
2013,04,22,14,37,12.20
2013,04,22,14,38,12.20
2013,04,22,14,39,12.20
2013,04,22,14,40,12.20
2013,04,22,14,41,12.20
2013,04,22,14,42,12.30
2013,04,22,14,43,12.30
2013,04,22,14,44,12.40
2013,04,22,14,45,12.40
2013,04,22,14,46,12.50
2013,04,22,14,47,12.50
2013,04,22,14,48,12.50
2013,04,22,14,49,12.50
2013,04,22,14,50,12.50
2013,04,22,14,51,12.40
2013,04,22,14,52,12.50
2013,04,22,14,53,12.50
2013,04,22,14,54,12.60
2013,04,22,14,55,12.70
2013,04,22,14,56,12.70
2013,04,22,14,57,12.70
2013,04,22,14,58,12.70
2013,04,22,14,59,12.70
2013,04,22,15,00,12.80
2013,04,22,15,01,12.80
2013,04,22,15,02,12.90
2013,04,22,15,03,12.90
2013,04,22,15,04,12.80
2013,04,22,15,05,12.80
2013,04,22,15,06,12.80
2013,04,22,15,07,12.80
2013,04,22,15,08,12.80
2013,04,22,15,09,12.80
2013,04,22,15,10,12.80
2013,04,22,15,11,12.80
2013,04,22,15,12,12.90
2013,04,22,15,13,12.90
2013,04,22,15,14,12.90
2013,04,22,15,15,12.90
2013,04,22,15,16,12.90
2013,04,22,15,17,12.90
2013,04,22,15,18,12.90
2013,04,22,15,19,12.90
2013,04,22,15,20,13.00
2013,04,22,15,21,13.00
2013,04,22,15,22,12.90
2013,04,22,15,23,12.90
2013,04,22,15,24,12.80
2013,04,22,15,25,12.70
2013,04,22,15,26,12.70
2013,04,22,15,27,12.70
2013,04,22,15,28,12.70
2013,04,22,15,29,12.70
2013,04,22,15,30,12.70
2013,04,22,15,31,12.70
2013,04,22,15,32,12.70
2013,04,22,15,33,12.70
2013,04,22,15,34,12.70
2013,04,22,15,35,12.60
2013,04,22,15,36,12.60
2013,04,22,15,37,12.60
2013,04,22,15,38,12.60
2013,04,22,15,39,12.60
2013,04,22,15,40,12.60
2013,04,22,15,41,12.60
2013,04,22,15,42,12.70
2013,04,22,15,43,12.70
2013,04,22,15,44,12.70
2013,04,22,15,45,12.80
2013,04,22,15,46,12.80
2013,04,22,15,47,12.80
2013,04,22,15,48,12.80
2013,04,22,15,49,12.80
2013,04,22,15,50,12.80
2013,04,22,15,51,12.80
2013,04,22,15,52,12.90
2013,04,22,15,53,12.90
2013,04,22,15,54,12.90
2013,04,22,15,55,12.90
2013,04,22,15,56,12.90
2013,04,22,15,57,13.00
2013,04,22,15,58,13.00
2013,04,22,15,59,13.10
2013,04,22,16,00,13.10
2013,04,22,16,01,13.00
2013,04,22,16,02,13.00
2013,04,22,16,03,13.10
2013,04,22,16,04,13.10
2013,04,22,16,05,13.10
2013,04,22,16,06,13.10
2013,04,22,16,07,13.20
2013,04,22,16,08,13.20
2013,04,22,16,09,13.20
2013,04,22,16,10,13.20
2013,04,22,16,11,13.20
2013,04,22,16,12,13.20
2013,04,22,16,13,13.30
2013,04,22,16,14,13.30
2013,04,22,16,15,13.30
2013,04,22,16,16,13.30
2013,04,22,16,17,13.30
2013,04,22,16,18,13.20
2013,04,22,16,19,13.20
2013,04,22,16,20,13.20
2013,04,22,16,21,13.20
2013,04,22,16,22,13.20
2013,04,22,16,23,13.20
2013,04,22,16,24,13.20
2013,04,22,16,25,13.30
2013,04,22,16,26,13.30
2013,04,22,16,27,13.30
2013,04,22,16,28,13.30
2013,04,22,16,29,13.30
2013,04,22,16,30,13.30
2013,04,22,16,31,13.30
2013,04,22,16,32,13.40
2013,04,22,16,33,13.40
2013,04,22,16,34,13.40
2013,04,22,16,35,13.40
2013,04,22,16,36,13.40
2013,04,22,16,37,13.40
2013,04,22,16,38,13.40
2013,04,22,16,39,13.40
2013,04,22,16,40,13.40
2013,04,22,16,41,13.40
2013,04,22,16,42,13.30
2013,04,22,16,43,13.30
2013,04,22,16,44,13.30
2013,04,22,16,45,13.30
2013,04,22,16,46,13.30
2013,04,22,16,47,13.30
2013,04,22,16,48,13.40
2013,04,22,16,49,13.40
2013,04,22,16,50,13.40
2013,04,22,16,51,13.50
2013,04,22,16,52,13.50
2013,04,22,16,53,13.50
2013,04,22,16,54,13.50
2013,04,22,16,55,13.60
2013,04,22,16,56,13.60
2013,04,22,16,57,13.60
2013,04,22,16,58,13.60
2013,04,22,16,59,13.70
2013,04,22,17,00,13.70
2013,04,22,17,01,13.70
2013,04,22,17,02,13.60
2013,04,22,17,03,13.60
2013,04,22,17,04,13.60
2013,04,22,17,05,13.60
2013,04,22,17,06,13.60
2013,04,22,17,07,13.60
2013,04,22,17,08,13.60
2013,04,22,17,09,13.60
2013,04,22,17,10,13.60
2013,04,22,17,11,13.60
2013,04,22,17,12,13.70
2013,04,22,17,13,13.70
2013,04,22,17,14,13.70
2013,04,22,17,15,13.70
2013,04,22,17,16,13.70
2013,04,22,17,17,13.70
2013,04,22,17,18,13.70
2013,04,22,17,19,13.70
2013,04,22,17,20,13.70
2013,04,22,17,21,13.70
2013,04,22,17,22,13.70
2013,04,22,17,23,13.80
2013,04,22,17,24,13.80
2013,04,22,17,25,13.80
2013,04,22,17,26,13.80
2013,04,22,17,27,13.90
2013,04,22,17,28,13.90
2013,04,22,17,29,13.90
2013,04,22,17,30,13.80
2013,04,22,17,31,13.80
2013,04,22,17,32,13.80
2013,04,22,17,33,13.80
2013,04,22,17,34,13.80
2013,04,22,17,35,13.90
2013,04,22,17,36,13.90
2013,04,22,17,37,13.90
2013,04,22,17,38,13.90
2013,04,22,17,39,13.90
2013,04,22,17,40,14.00
2013,04,22,17,41,14.00
2013,04,22,17,42,14.00
2013,04,22,17,43,14.00
2013,04,22,17,44,14.10
2013,04,22,17,45,14.10
2013,04,22,17,46,14.20
2013,04,22,17,47,14.20